Weather History for Central Park, NY

Change the Weather History Date:

Monday, February 4, 2013

  Actual Average Record
Temperature  
Mean Temperature 27 °F 34 °F  
Max Temperature 30 °F 40 °F 68 °F (1991)
Min Temperature 23 °F 28 °F 0 °F (1918)
Degree Days  
Heating Degree Days 38 31  
Month to date heating degree days 154 127  
Since 1 July heating degree days 2663 2816  
Cooling Degree Days 0 0  
Month to date cooling degree days 0 0  
Year to date cooling degree days 0 0  
Moisture  
Dew Point 9 °F    
Average Humidity 54    
Maximum Humidity 69    
Minimum Humidity 39    
Precipitation  
Precipitation 0.00 in 0.10 in 2.10 in (1961)
Month to date precipitation 0.04 0.43  
Year to date precipitation 2.80 4.08  
Snow  
Snow 0.00 in 0.30 in 11.40 in (1961)
Month to date snowfall 0.4 1.3  
Since 1 July snowfall 7.0 13.4  
Snow Depth 0.00 in    
Sea Level Pressure  
Sea Level Pressure 29.92 in    
Wind  
Wind Speed 7 mph (WNW)    
Max Wind Speed 17 mph    
Max Gust Speed 32 mph    
Visibility 10 miles    
Events      
T = Trace of Precipitation, MM = Missing Value Source: NWS Daily Summary

Daily Weather History Graph

Daily Weather History Graph

Search for Another Location

Airport:

Trip Planner

Search our weather history database for the weather conditions in past years. The results will help you decide how hot, cold, wet, or windy it might be!

Date:

Astronomy

Feb. 04, 2013 Rise Set
Actual Time 7:02 AM EST 5:17 PM EST
Civil Twilight 6:33 AM EST 5:46 PM EST
Nautical Twilight 6:01 AM EST 6:18 PM EST
Astronomical Twilight 5:29 AM EST 6:50 PM EST
Moon 1:35 AM EST (2/4) 11:38 AM EST (2/4)
Length of Visible Light 11h 12m
Length of Day
10h 14m
Last Quarter, 37% of the Moon is Illuminated
Feb 4
Last Quarter
Feb 10
New
Feb 17
First Quarter
Feb 25
Full
Mar 4
Last Quarter

Hourly Weather History & Observations

Time (EST) Temp. Windchill Dew Point Humidity Pressure Visibility Wind Dir Wind Speed Gust Speed Precip Events Conditions
12:51 AM 28.0 °F 24.2 °F 19.0 °F 69% 29.81 in 7.0 mi Variable 3.5 mph - N/A   Mostly Cloudy
1:51 AM 27.0 °F 17.3 °F 16.0 °F 63% 29.81 in 10.0 mi WNW 10.4 mph 20.7 mph N/A   Mostly Cloudy
2:51 AM 26.1 °F 15.6 °F 12.0 °F 55% 29.83 in 10.0 mi WNW 11.5 mph 32.2 mph N/A   Clear
3:51 AM 25.0 °F 17.1 °F 10.0 °F 53% 29.84 in 10.0 mi Variable 6.9 mph 18.4 mph N/A   Clear
5:51 AM 24.8 °F 16.9 °F 8.6 °F 50% 29.92 in 10.0 mi Variable 6.9 mph 21.9 mph N/A   Clear
6:51 AM 23.0 °F 13.9 °F 8.1 °F 53% 29.92 in 10.0 mi West 8.1 mph 19.6 mph N/A   Clear
7:51 AM 23.0 °F - 9.0 °F 55% 29.94 in 10.0 mi North - - N/A   Clear
8:51 AM 24.1 °F 15.2 °F 8.1 °F 51% 29.95 in 10.0 mi WNW 8.1 mph - N/A   Clear
9:51 AM 25.0 °F 16.3 °F 7.0 °F 46% 29.96 in 10.0 mi WNW 8.1 mph 18.4 mph N/A   Clear
10:51 AM 27.0 °F 15.6 °F 7.0 °F 43% 29.96 in 10.0 mi West 13.8 mph 21.9 mph N/A   Partly Cloudy
11:51 AM 28.0 °F 21.7 °F 7.0 °F 41% 29.94 in 10.0 mi Variable 5.8 mph 20.7 mph N/A   Partly Cloudy
12:51 PM 28.0 °F 24.2 °F 6.1 °F 39% 29.94 in 10.0 mi Variable 3.5 mph 20.7 mph N/A   Mostly Cloudy
1:51 PM 28.9 °F 21.1 °F 7.0 °F 40% 29.92 in 10.0 mi West 8.1 mph - N/A   Mostly Cloudy
2:51 PM 28.9 °F - 8.1 °F 41% 29.91 in 10.0 mi North - - N/A   Clear
3:51 PM 28.9 °F 22.8 °F 7.0 °F 40% 29.92 in 10.0 mi Variable 5.8 mph - N/A   Partly Cloudy
4:51 PM 28.0 °F - 7.0 °F 41% 29.93 in 10.0 mi North - - N/A   Clear
5:51 PM 28.0 °F 21.7 °F 7.0 °F 41% 29.94 in 10.0 mi Variable 5.8 mph 18.4 mph N/A   Clear
6:51 PM 28.0 °F 20.8 °F 8.1 °F 43% 29.96 in 10.0 mi Variable 6.9 mph - N/A   Clear
7:51 PM 28.0 °F 20.0 °F 8.1 °F 43% 29.97 in 10.0 mi West 8.1 mph - N/A   Clear
8:51 PM 28.0 °F 18.6 °F 8.1 °F 43% 29.97 in 10.0 mi West 10.4 mph - N/A   Mostly Cloudy
9:51 PM 28.0 °F - 10.0 °F 47% 29.97 in 10.0 mi Calm Calm - N/A   Mostly Cloudy
10:51 PM 28.9 °F 25.2 °F 10.9 °F 47% 29.97 in 10.0 mi Variable 3.5 mph - N/A   Overcast
11:51 PM 28.9 °F 21.9 °F 12.9 °F 51% 29.96 in 10.0 mi Variable 6.9 mph 17.3 mph N/A   Overcast